Home > Weather > A Coruña > Past weeks

Flag for Spain Weather for the Past 2 Weeks in A Coruña, Spain

Now
54 °F

Cool.


Feels Like: 51 °F
Forecast: 51 / 57 °F
Wind: 10 mph from South

Location: La Coruna

Current Time: Feb 6, 2016 at 10:19:46 AM

Latest Report: Feb 6, 2016 at 9:00 AM


Visibility: 13 mi

Pressure: 29.90 "Hg

Humidity: 73%

Dew point: 46 °F

Location of A CoruñaLocation

Historic Weather in A Coruña — Graph

°F

A Coruña Temperature Yesterday

Maximum temperature yesterday: 62 °F (at 3:00 PM)
Minimum temperature yesterday: 47 °F (at 4:00 AM)
Average temperature yesterday: 54 °F

High & Low Weather Summary for the Past Weeks

 TemperatureHumidityPressure
High69 °F (Jan 24, 3:00 PM)97% (Jan 22, 1:00 PM)30.71 "Hg (Jan 22, 1:00 PM)
Low42 °F (Jan 29, 9:00 AM)44% (Feb 5, 3:00 PM)29.90 "Hg (Feb 6, 9:00 AM)
Average55 °F79%30.43 "Hg
* Reported Jan 22 9:00 AM — Feb 6 9:00 AM, A Coruña, Weather by CustomWeather, © 2016

Note: Actual official high and low records may vary slightly from our data, if they occured in-between our weather recording intervals... More about our weather records

Advertising

A Coruña Weather History for the Previous 24 Hours

 ConditionsComfort  
Time TempWeatherWind HumidityBarometerVisibility
9:00 AM
Sat, Feb 6
54 °FCool.10 mph73%29.90 "Hg12 mi
8:00 AM54 °FCool.14 mph75%29.93 "Hg12 mi
7:00 AM54 °FPassing clouds.10 mph78%29.96 "Hg11 mi
6:00 AM53 °FCool.7 mph79%30.00 "Hg12 mi
5:00 AM51 °FCool.3 mph83%30.03 "Hg12 mi
4:00 AM50 °FPassing clouds.5 mph84%30.06 "Hg11 mi
3:00 AM49 °FCool.5 mph83%30.09 "Hg12 mi
9:00 PM
Fri, Feb 5
53 °FCool.5 mph75%30.20 "Hg12 mi
8:00 PM55 °FCool.6 mph70%30.20 "Hg12 mi
7:00 PM56 °FCool.10 mph64%30.20 "Hg12 mi
6:00 PM58 °FRefreshingly cool.8 mph57%30.19 "Hg12 mi
5:00 PM60 °FRefreshingly cool.13 mph50%30.20 "Hg12 mi
4:00 PM62 °FRefreshingly cool.10 mph45%30.21 "Hg12 mi
3:00 PM62 °FRefreshingly cool.10 mph44%30.23 "Hg12 mi
2:00 PM61 °FRefreshingly cool.10 mph48%30.25 "Hg12 mi
1:00 PM60 °FScattered clouds.3 mph48%30.29 "Hg16 mi
12:00 PM57 °FRefreshingly cool.7 mph53%30.30 "Hg12 mi
11:00 AM54 °FCool.7 mph58%30.30 "Hg12 mi
10:00 AM50 °FScattered clouds.6 mph62%30.31 "Hg16 mi
Weather by CustomWeather, © 2016

See weather overviewHow to use our weather pages